This is the latest recevied weather packets stored in our database for station/object N4BBA. If no packets are shown the sender has not sent any weather packets the latest 10 day(s).
| Time | Temp. | Humidity | Pressure | Rain* | Wind** | Luminosity | Snow |
|---|---|---|---|---|---|---|---|
| 1777917091 | 25° C | 37% | 1014.7 hPa | 0 mm | - | 822 W/m² | - |
| 1777916790 | 24.44° C | 37% | 1014.8 hPa | 0 mm | - | 825 W/m² | - |
| 1777916486 | 25° C | 37% | 1014.8 hPa | 0 mm | - | 829 W/m² | - |
| 1777916183 | 25° C | 37% | 1014.9 hPa | 0 mm | - | 831 W/m² | - |
| 1777915881 | 25° C | 38% | 1014.9 hPa | 0 mm | - | 833 W/m² | - |
| 1777915577 | 25° C | 39% | 1014.9 hPa | 0 mm | - | 832 W/m² | - |
| 1777915274 | 25° C | 39% | 1014.9 hPa | 0 mm | - | 832 W/m² | - |
| 1777914970 | 24.44° C | 41% | 1015 hPa | 0 mm | - | 832 W/m² | - |
| 1777914668 | 23.89° C | 40% | 1015.2 hPa | 0 mm | - | 830 W/m² | - |
| 1777914363 | 23.89° C | 40% | 1015.3 hPa | 0 mm | - | 828 W/m² | - |
| 1777914061 | 23.89° C | 40% | 1015.3 hPa | 0 mm | - | 827 W/m² | - |
| 1777913756 | 23.89° C | 40% | 1015.3 hPa | 0 mm | - | 829 W/m² | - |
| 1777913453 | 23.89° C | 41% | 1015.8 hPa | 0 mm | - | 828 W/m² | - |
| 1777913150 | 23.33° C | 41% | 1015.4 hPa | 0 mm | - | 824 W/m² | - |
| 1777912846 | 23.89° C | 42% | 1015.5 hPa | 0 mm | - | 822 W/m² | - |
| 1777912543 | 23.89° C | 41% | 1015.4 hPa | 0 mm | - | 818 W/m² | - |
| 1777912239 | 23.89° C | 42% | 1015.4 hPa | 0 mm | - | 813 W/m² | - |
| 1777911935 | 23.89° C | 44% | 1015.5 hPa | 0 mm | - | 808 W/m² | - |
| 1777911632 | 23.33° C | 45% | 1015.6 hPa | 0 mm | - | 800 W/m² | - |
| 1777911328 | 23.89° C | 46% | 1015.8 hPa | 0 mm | - | 800 W/m² | - |
| 1777911026 | 22.78° C | 48% | 1015.9 hPa | 0 mm | - | 795 W/m² | - |
| 1777910723 | 22.78° C | 47% | 1016 hPa | 0 mm | - | 787 W/m² | - |
| 1777910420 | 23.33° C | 48% | 1016 hPa | 0 mm | - | 784 W/m² | - |
| 1777910116 | 22.78° C | 49% | 1016.1 hPa | 0 mm | - | 780 W/m² | - |
| 1777909814 | 22.22° C | 48% | 1016.1 hPa | 0 mm | - | 775 W/m² | - |
* Rain latest hour (hover to see other rain measurements)
** Current wind speed in m/s (hover to see current wind gust speed)